Location: Vancouver
(49.2500°N, 123.1330°W)
Time: 03:33:49
(UTC-07:00)

ISS - All Passes

Search period start: 25 April 2017 00:00
Search period end: 05 May 2017 00:00
Orbit: 400 x 409 km, 51.6° (Epoch: 25 April)

Date Brightness Start Highest point End Pass type
(mag) Time Alt. Az. Time Alt. Az. Time Alt. Az.
25 Apr - 09:44:55 10° SSW 09:47:35 24° SE 09:50:16 10° E daylight
25 Apr - 11:20:32 10° WSW 11:23:48 86° NNW 11:27:04 10° ENE daylight
25 Apr - 12:57:15 10° WNW 13:00:28 53° N 13:03:39 10° E daylight
25 Apr - 14:33:49 10° WNW 14:37:05 82° SSW 14:40:20 10° ESE daylight
25 Apr - 16:10:48 10° W 16:13:11 19° SW 16:15:34 10° S daylight
26 Apr - 08:53:36 10° S 08:55:30 15° SE 08:57:25 10° ESE daylight
26 Apr - 10:28:16 10° WSW 10:31:31 67° SSE 10:34:46 10° ENE daylight
26 Apr - 12:04:52 10° W 12:08:05 55° N 12:11:18 10° ENE daylight
26 Apr - 13:41:30 10° WNW 13:44:47 75° NNE 13:48:02 10° ESE daylight
26 Apr - 15:18:10 10° W 15:21:04 30° SW 15:23:58 10° SSE daylight
27 Apr - 09:36:09 10° SW 09:39:16 43° SSE 09:42:24 10° ENE daylight
27 Apr - 11:12:28 10° W 11:15:42 62° N 11:18:56 10° ENE daylight
27 Apr - 12:49:11 10° WNW 12:52:25 60° N 12:55:39 10° E daylight
27 Apr - 14:25:44 10° WNW 14:28:53 47° SSW 14:32:01 10° SE daylight
28 Apr - 08:44:15 10° SSW 08:47:05 28° SE 08:49:55 10° E daylight
28 Apr - 10:20:05 10° WSW 10:23:20 78° NNW 10:26:37 10° ENE daylight
28 Apr - 11:56:49 10° WNW 12:00:02 54° N 12:03:14 10° E daylight
28 Apr - 13:33:21 10° WNW 13:36:37 72° SSW 13:39:51 10° ESE daylight
28 Apr - 15:10:34 10° W 15:12:39 16° SW 15:14:44 10° S daylight
29 Apr - 07:52:41 10° S 07:54:56 17° SE 07:57:12 10° E daylight
29 Apr - 09:27:45 10° WSW 09:31:01 77° SSE 09:34:16 10° ENE daylight
29 Apr - 11:04:24 10° W 11:07:37 53° N 11:10:50 10° ENE daylight
29 Apr - 12:41:01 10° WNW 12:44:17 82° NNE 12:47:32 10° ESE daylight
29 Apr - 14:17:45 10° W 14:20:31 25° SW 14:23:16 10° SSE daylight
30 Apr - 07:02:11 10° SSE 07:02:51 10° SE 07:03:32 10° ESE daylight
30 Apr - 08:35:32 10° SW 08:38:43 51° SSE 08:41:53 10° ENE daylight
30 Apr - 10:11:58 10° W 10:15:12 59° N 10:18:26 10° ENE daylight
30 Apr - 11:48:39 10° WNW 11:51:55 64° NNE 11:55:08 10° E daylight
30 Apr - 13:25:13 10° WNW 13:28:19 40° SSW 13:31:23 10° SE daylight
01 May - 07:43:30 10° SSW 07:46:28 32° SSE 07:49:26 10° E daylight
01 May - 09:19:32 10° W 09:22:47 71° NNW 09:26:02 10° ENE daylight
01 May - 10:56:16 10° WNW 10:59:29 55° N 11:02:42 10° E daylight
01 May - 12:32:48 10° WNW 12:36:01 63° SSW 12:39:14 10° SE daylight
01 May - 14:10:18 10° WSW 14:11:59 13° SW 14:13:40 10° SSW daylight
02 May - 06:51:45 10° SSW 06:54:16 20° SE 06:56:46 10° E daylight
02 May - 08:27:08 10° WSW 08:30:24 86° SSE 08:33:41 10° ENE daylight
02 May - 10:03:49 10° W 10:07:02 53° N 10:10:14 10° ENE daylight
02 May - 11:40:24 10° WNW 11:43:41 90° S 11:46:56 10° ESE daylight
02 May - 13:17:16 10° W 13:19:50 22° SW 13:22:24 10° SSE daylight
03 May - 06:00:36 10° SSE 06:02:07 13° SE 06:03:38 10° ESE daylight
03 May - 07:34:50 10° SW 07:38:03 59° SSE 07:41:17 10° ENE daylight
03 May - 09:11:21 10° W 09:14:34 56° N 09:17:48 10° ENE daylight
03 May - 10:48:01 10° WNW 10:51:16 69° NNE 10:54:31 10° E daylight
03 May - 12:24:37 10° W 12:27:37 34° SSW 12:30:36 10° SE daylight
04 May - 06:42:40 10° SW 06:45:44 38° SSE 06:48:48 10° E daylight
04 May - 08:18:52 10° W 08:22:07 66° NNW 08:25:22 10° ENE daylight
04 May - 09:55:35 10° WNW 09:58:49 58° N 10:02:02 10° E daylight
04 May - 11:32:07 10° WNW 11:35:19 54° SSW 11:38:29 10° SE daylight
04 May - 13:10:08 10° WSW 13:11:12 11° SW 13:12:16 10° SSW daylight
